User: anonymous   Login
Location: Cran-Gévrier
(45.9039°N, 6.1012°E)
Time: 01:28:30
(UTC+00:00)
Language:

Okean 1-7 Rocket - Orbit

View from above orbital plane
View from above orbital plane
View from above satellite
View from above satellite

Ground track
Ground track

The orbit data is extracted from the following two-line orbital elements,

1 23318U 94066B   23152.43475365  .00000425  00000-0  53809-4 0  9992
2 23318  82.5396 310.9868 0022387 317.3089  42.6384 14.79350836543881
Epoch (UTC): 01 June 2023 10:26:02
Eccentricity: 0.0022387
inclination: 82.5396°
perigee height: 615 km
apogee height: 647 km
right ascension of ascending node: 310.9868°
argument of perigee: 317.3089°
revolutions per day: 14.79350836
mean anomaly at epoch: 42.6384°
orbit number at epoch: 54388

The dashed part of the orbit path shows where the satellite is in the earth's shadow,  

DLR